Dewpoint
51 52 53 54 54 54 55 55 55 53 53 54 55 54 54 53 54 53 52 53 53 54 53 54 54 55 52 40 25 26 26 31 37 37 27 18 14 11 7 6 5 5 -0 2 4 7 9
52 53 54 54 53 54 55 55 55 55 55 55 54 53 53 53 54 53 53 54 54 53 53 54 54 55 48 31 25 24 23 23 22 21 17 16 15 12 4 3 7 9 9 9 9 11 12
53 54 54 54 53 55 55 55 55 55 55 54 54 53 53 53 53 54 54 54 53 54 53 53 54 51 42 29 22 22 22 22 23 24 22 20 18 12 13 16 14 13 14 15 16 16 14
53 54 53 53 53 55 55 55 55 55 54 54 53 53 52 53 53 53 53 53 53 53 53 53 54 49 35 27 25 22 19 18 22 24 25 22 21 23 22 19 13 12 15 14 16 17 20
53 53 53 52 54 55 55 55 55 54 53 53 53 52 52 52 52 52 52 52 52 52 52 53 51 46 31 25 21 20 19 19 22 25 26 23 23 18 18 15 13 13 11 14 18 16 18
53 53 51 53 55 55 55 55 54 53 53 52 52 52 52 52 52 52 51 51 52 51 51 47 43 35 24 18 20 19 20 26 23 26 23 23 21 18 17 16 13 11 5 8 9 16 11
53 52 50 53 54 55 55 55 54 53 52 52 51 51 51 51 51 51 50 45 37 37 36 25 20 23 17 16 18 20 22 24 25 25 23 20 18 17 15 14 11 11 8 8 11 17 16
52 51 49 52 54 54 54 54 54 53 52 51 51 50 50 51 51 51 51 42 39 36 26 24 23 24 23 24 19 20 24 23 21 20 19 13 15 19 16 16 15 14 14 14 17 18 18
52 49 49 52 54 54 53 53 53 52 52 51 50 51 51 50 51 51 45 46 46 47 22 21 24 21 24 25 22 21 25 21 18 17 10 21 20 19 18 18 18 17 17 23 20 20 20
51 47 49 52 53 53 52 53 53 52 51 50 50 51 51 50 48 46 43 46 49 49 20 16 20 19 23 24 22 24 24 25 16 11 12 20 21 20 20 20 23 17 26 25 21 20 15
51 46 49 52 53 52 52 52 52 52 50 50 50 51 50 49 54 40 47 49 50 48 19 20 19 24 21 24 23 24 24 21 18 18 20 21 21 22 22 25 24 22 26 24 24 22 20
50 47 50 52 52 52 52 52 52 51 50 49 50 50 50 49 55 49 50 53 50 39 23 19 20 22 21 23 25 25 23 27 27 18 22 23 24 26 27 26 25 25 27 25 24 23 22
49 47 50 51 52 52 52 52 51 50 51 50 50 49 50 52 49 53 55 48 24 28 20 19 19 22 23 23 23 24 24 24 25 21 22 23 25 28 27 26 27 26 24 25 26 22 22
48 49 51 51 52 52 52 50 50 51 52 52 52 53 54 53 53 57 51 36 28 22 17 18 20 23 22 24 24 25 24 23 26 28 22 21 25 26 27 27 25 26 24 28 22 23 24
48 50 51 51 52 52 51 50 50 51 52 52 52 57 52 58 58 55 43 32 26 19 21 20 20 20 23 25 25 26 26 25 28 30 26 21 24 27 28 28 26 25 27 24 24 29 24
50 50 51 51 50 52 50 50 50 51 51 51 46 45 45 57 58 53 42 34 28 26 20 21 19 21 20 21 23 25 25 28 27 29 28 24 26 23 24 27 31 24 25 24 28 22 17
50 50 50 49 50 50 50 50 50 51 51 52 51 37 54 56 55 39 35 36 28 27 27 21 21 21 23 22 24 25 27 29 30 28 28 25 24 23 22 25 20 24 24 26 22 24 21
50 50 49 48 50 50 50 50 50 50 51 51 45 35 53 55 33 33 33 29 29 29 32 31 28 25 26 26 26 27 27 32 32 30 27 27 25 24 18 23 25 24 24 24 24 22 25
49 49 49 49 50 50 50 50 50 51 51 51 38 44 51 51 34 39 34 30 29 28 27 29 30 30 31 28 30 29 34 35 33 35 35 31 29 24 20 26 28 21 23 24 27 29 25
49 49 49 49 50 50 50 50 51 51 51 50 43 38 37 41 42 33 33 31 32 34 32 31 31 31 30 31 31 31 34 36 37 36 33 36 27 23 21 19 19 17 18 19 20 26 25
49 49 49 49 50 49 50 50 51 51 50 49 43 39 34 33 35 33 30 29 30 31 32 32 30 29 30 29 30 31 33 35 35 35 34 33 29 27 26 20 20 19 20 20 20 21 20
49 50 49 49 50 50 50 50 51 50 48 48 43 38 40 36 33 33 33 30 29 27 31 28 29 30 31 32 29 29 30 29 29 32 33 33 32 33 27 21 20 20 22 23 21 20 21
50 49 49 50 50 50 50 50 51 50 50 46 45 46 40 39 36 35 35 31 29 32 35 32 30 31 35 36 37 35 34 32 31 32 32 34 35 31 26 30 30 29 29 22 22 23 24
50 49 49 51 50 51 51 50 51 50 51 54 50 43 46 39 37 34 33 31 30 33 31 32 32 36 39 36 37 36 35 35 32 34 35 37 35 36 27 31 20 24 23 24 24 24 25
50 49 49 51 51 52 51 50 51 51 52 50 47 48 46 42 40 35 34 31 36 35 35 39 40 39 38 36 38 29 31 26 30 31 32 35 37 32 30 27 25 25 27 28 26 26 28
49 49 50 52 52 52 52 51 50 51 52 51 54 55 49 41 42 36 33 36 36 38 40 41 42 42 40 42 37 17 27 24 27 30 35 35 39 34 31 27 22 25 28 30 29 26 36
49 49 51 52 52 52 52 51 50 50 51 53 53 56 51 48 41 43 38 39 39 41 40 41 42 42 42 42 33 33 28 25 24 26 33 33 35 32 30 27 28 28 30 31 25 32 39
50 50 51 52 52 52 52 52 50 50 50 53 53 54 53 47 44 44 42 41 40 40 43 41 40 42 44 37 37 38 36 34 31 27 32 29 31 30 30 28 25 30 30 32 37 39 40
49 50 51 52 52 51 52 52 51 50 50 52 48 52 54 48 48 50 50 49 47 46 41 44 38 42 44 42 41 41 35 39 36 28 24 26 33 32 32 31 34 35 37 41 41 39 39
Wind_Speed
9 10 14 15 14 16 18 17 17 19 18 16 16 15 15 15 14 13 13 13 12 12 12 13 13 12 8 8 2 8 7 7 11 10 14 13 15 8 9 6 7 8 9 11 10 7 4
9 11 14 15 15 16 18 17 16 17 15 15 14 13 14 14 13 13 13 13 11 12 11 13 12 12 4 13 2 1 6 10 2 11 4 5 7 7 4 7 8 10 10 11 9 7 5
9 11 13 15 14 16 17 16 16 15 13 12 12 13 13 13 12 12 12 10 11 11 12 12 9 6 9 6 3 5 4 4 7 11 10 5 8 8 5 6 2 7 8 7 8 9 9
10 9 14 14 14 16 17 15 15 14 12 11 11 11 12 12 11 11 10 9 11 12 12 11 8 5 7 2 10 5 6 5 2 5 5 3 4 10 6 6 5 9 10 11 12 8 7
9 9 13 13 14 16 16 14 14 11 9 9 9 10 11 10 10 9 10 10 12 12 10 8 5 6 8 5 7 1 5 4 1 2 1 1 7 5 2 8 10 11 11 10 10 7 1
9 9 11 12 14 16 14 13 12 9 8 7 8 9 9 9 10 11 9 7 8 7 8 8 13 13 6 2 3 2 2 5 4 4 5 5 6 8 12 13 2 12 7 4 2 9 6
9 7 9 11 13 15 13 13 10 8 6 5 5 5 7 8 10 9 4 4 5 4 13 7 13 2 5 4 3 6 3 5 6 7 11 8 11 1 14 10 6 10 7 6 8 8 3
8 7 8 9 13 13 12 12 9 6 5 4 4 5 6 8 8 7 5 7 7 5 8 1 5 4 2 5 6 6 4 7 5 13 4 5 4 7 5 8 6 5 5 5 3 5 5
7 6 7 8 11 13 12 10 8 7 4 3 1 2 6 7 6 3 11 6 5 10 7 5 2 6 1 7 4 4 4 9 10 10 8 10 11 6 4 2 8 5 4 8 7 11 11
6 6 6 8 10 12 13 11 7 5 4 1 1 3 6 8 4 10 8 3 4 5 7 7 8 5 5 3 4 1 4 4 3 2 4 9 3 2 1 2 8 7 6 6 9 10 12
7 5 6 8 8 11 13 12 8 4 2 4 3 2 9 15 12 8 3 3 4 2 6 6 5 3 7 4 10 4 3 6 5 2 3 7 4 1 2 6 7 5 7 8 9 12 13
7 5 6 8 9 11 11 10 6 3 3 3 3 3 11 7 5 3 3 4 2 5 4 7 7 9 8 5 1 5 3 4 4 3 6 8 3 7 7 5 3 7 10 12 10 12 8
7 5 6 7 9 10 11 9 6 1 2 4 6 9 7 8 2 2 2 2 5 4 8 8 11 9 11 7 7 8 6 5 4 6 7 6 6 6 6 11 7 6 10 7 4 8 4
8 6 6 6 8 10 10 9 6 2 5 6 8 5 1 4 2 2 2 8 7 4 6 10 12 10 8 8 4 3 11 10 9 10 4 10 8 4 5 7 7 5 7 3 4 5 8
9 7 5 4 8 10 9 9 6 3 5 7 5 4 3 2 3 2 6 9 2 4 8 8 12 10 5 4 2 3 11 8 7 10 6 3 7 6 6 6 8 6 7 4 4 2 3
10 7 4 3 7 9 8 9 6 2 4 5 6 4 5 2 1 3 6 10 1 6 4 12 10 5 9 9 8 8 4 2 4 8 7 4 3 2 3 3 2 5 1 3 2 3 4
11 8 4 2 6 7 7 9 7 3 3 3 4 6 4 5 1 7 9 6 2 3 4 7 5 5 2 8 4 4 4 6 4 5 6 7 3 6 5 7 8 2 3 3 4 1 2
12 8 4 0 5 7 8 9 8 4 0 4 5 6 6 6 8 11 13 3 1 8 3 2 4 3 5 5 3 4 9 8 3 3 6 5 3 1 7 6 4 4 5 4 2 4 2
12 9 5 1 4 7 8 10 9 5 2 3 6 5 4 5 8 8 4 5 6 9 9 5 2 1 2 6 3 6 8 3 4 6 4 5 2 3 9 5 4 1 3 2 4 3 7
13 9 6 2 4 7 9 11 11 7 4 1 6 5 5 8 12 15 9 9 6 4 6 1 5 5 7 5 3 7 9 4 5 8 2 3 1 0 2 6 9 9 12 10 12 10 11
12 9 5 3 3 6 9 11 12 9 4 2 6 7 10 13 12 8 13 11 11 7 5 6 5 7 7 4 6 6 11 8 5 3 2 3 1 4 7 10 9 11 13 13 15 16 17
12 9 6 3 2 6 9 12 12 9 3 3 5 3 5 6 15 11 6 8 12 8 10 10 5 8 9 8 4 8 7 5 4 4 2 3 1 4 3 5 10 16 19 15 15 16 13
13 10 7 3 2 6 9 13 13 11 1 5 2 2 3 1 5 8 7 9 11 10 2 4 7 9 14 13 14 13 13 10 6 4 4 2 1 2 3 11 13 4 2 6 9 8 10
13 9 7 4 3 7 10 14 14 12 7 5 4 3 4 3 8 12 10 8 9 10 7 8 8 11 8 13 11 12 12 8 1 4 2 5 2 2 4 7 3 4 17 13 8 7 10
12 9 7 4 4 7 12 15 16 14 14 2 1 3 4 4 10 6 10 9 13 8 11 13 10 9 12 3 3 2 2 3 2 4 3 4 5 2 2 4 12 10 3 5 6 13 11
13 10 7 5 4 8 11 14 16 15 15 3 5 5 4 7 3 6 9 13 12 13 8 5 4 4 1 3 3 4 4 2 7 6 9 3 4 3 3 2 4 3 7 4 6 13 10
13 10 8 6 5 7 10 14 16 16 15 5 4 5 2 4 3 5 9 13 11 12 7 8 6 3 2 3 3 4 4 2 6 7 6 3 2 7 7 6 8 9 6 1 4 3 10
14 11 9 7 5 6 10 13 15 16 14 7 4 6 4 4 4 5 2 4 1 8 7 11 6 2 3 4 4 4 2 5 2 4 8 8 9 6 5 5 8 2 4 1 6 11 7
14 12 10 7 5 6 8 11 14 16 15 10 3 2 5 5 5 6 7 8 7 9 5 12 2 7 7 5 4 2 3 1 1 4 7 6 9 6 12 8 10 9 5 7 9 8 7
Wind_Direction
268 285 292 298 308 304 302 302 299 295 290 284 275 270 267 262 260 260 260 263 270 278 283 291 300 319 309 240 30 102 290 258 196 209 239 232 234 225 211 166 175 98 95 85 114 148 23
269 288 295 300 306 308 304 302 300 288 287 279 275 269 260 254 254 252 256 263 272 276 284 290 300 319 261 269 91 353 346 302 290 242 225 283 351 331 130 154 140 124 134 135 151 139 136
270 289 300 301 311 307 303 305 298 293 287 278 270 262 256 251 247 247 248 258 265 271 277 283 303 293 267 306 331 347 257 357 336 341 332 43 321 265 33 63 81 144 157 170 173 154 159
275 296 299 305 316 307 305 311 302 297 286 275 264 257 250 247 242 240 247 252 258 266 270 280 283 255 264 52 330 239 316 219 289 315 23 25 288 290 330 87 212 196 232 189 158 161 155
278 300 299 312 312 308 315 315 304 297 287 272 259 249 241 234 230 227 231 243 251 260 257 266 235 221 255 147 209 88 260 307 117 231 352 268 236 217 218 201 199 209 224 163 150 184 92
272 289 306 312 313 313 323 318 307 305 286 267 248 235 229 223 220 219 225 238 236 272 228 233 266 240 226 169 45 301 184 263 212 167 203 233 229 200 211 217 321 312 196 91 122 139 200
266 297 304 313 315 319 329 319 308 303 284 260 243 228 219 216 214 210 184 204 191 180 217 254 176 259 117 87 172 215 150 184 249 212 230 209 256 1 32 24 2 342 5 327 136 86 320
265 291 302 319 314 322 333 319 313 307 271 231 203 192 197 202 197 196 246 241 31 3 167 322 70 67 9 326 142 138 189 218 203 229 211 230 207 54 27 16 343 327 343 323 44 90 302
258 283 299 317 316 325 330 324 325 302 269 219 102 190 203 197 167 196 236 350 339 354 134 145 59 122 84 288 56 117 273 251 222 244 217 61 65 62 7 33 340 241 324 27 324 323 266
251 273 299 307 319 325 325 331 327 296 278 352 212 206 180 158 177 209 226 347 3 353 162 147 198 131 187 170 128 322 262 302 257 194 129 67 61 50 359 55 351 317 41 323 294 284 279
241 265 294 299 320 328 327 333 318 300 259 226 142 150 172 188 308 199 38 358 351 301 160 177 129 83 133 254 138 111 170 229 254 148 285 115 140 21 284 27 340 4 340 303 288 277 276
230 252 282 298 321 329 330 330 320 303 239 211 95 186 176 230 246 23 24 339 312 255 158 159 156 158 151 154 84 124 132 22 360 152 79 87 66 37 8 307 303 306 280 265 260 252 260
220 238 272 298 321 330 334 335 341 314 170 127 144 136 179 315 352 36 322 195 228 278 153 152 162 179 134 126 131 162 152 128 296 163 174 158 78 105 349 299 190 300 323 289 250 198 243
213 224 261 302 322 338 351 350 356 337 156 138 152 148 315 48 343 3 261 220 248 53 167 138 147 143 150 140 124 149 149 113 42 319 212 190 153 338 34 25 347 339 324 38 315 343 337
205 220 249 316 329 344 1 356 350 352 174 160 174 170 201 87 302 302 240 221 159 254 124 164 159 171 158 163 177 120 65 73 29 16 12 312 101 102 61 6 350 355 49 4 285 5 315
198 211 242 345 331 345 2 354 354 321 221 190 191 191 169 135 298 245 238 242 3 356 164 173 183 217 175 169 169 195 172 25 89 23 342 46 135 51 77 239 95 38 20 330 13 303 294
191 202 219 340 326 341 0 356 360 315 244 183 228 208 124 142 207 217 225 223 193 181 299 210 236 196 167 157 181 144 104 110 26 63 40 5 339 115 245 34 6 0 6 337 319 28 290
190 199 207 219 317 341 358 3 7 4 280 206 195 219 149 152 185 220 231 194 220 173 237 68 347 176 151 158 148 103 130 64 78 346 57 32 73 314 71 76 32 334 338 324 336 308 305
186 189 197 176 322 344 356 5 13 22 16 256 206 146 160 191 207 221 131 132 196 169 184 175 137 110 93 147 112 122 109 91 51 36 36 356 80 275 152 161 182 10 358 329 113 109 259
183 182 185 153 341 350 353 4 10 11 45 286 241 124 151 201 270 193 195 177 154 1 117 175 128 155 164 140 127 151 126 124 71 80 35 324 47 25 302 318 335 308 303 283 267 221 249
177 176 177 136 4 354 357 4 4 7 45 208 257 178 172 194 240 225 188 184 172 174 195 181 180 178 166 157 150 151 131 131 146 141 132 10 200 348 312 310 311 307 296 290 280 272 265
171 168 166 134 21 5 2 4 7 14 61 239 301 151 183 178 205 212 150 205 191 177 171 185 207 192 164 153 184 175 159 173 147 148 133 71 130 13 284 281 341 303 295 287 280 276 280
166 164 163 137 40 16 11 9 11 18 28 254 55 306 186 303 191 199 171 222 200 128 291 218 187 138 82 71 65 58 56 54 91 146 170 88 42 36 263 348 319 306 268 345 320 318 308
163 165 161 135 60 26 19 18 18 16 12 308 23 280 95 174 196 191 201 201 169 167 170 116 116 112 109 112 73 62 61 50 173 82 23 135 100 88 286 327 331 28 323 287 313 325 324
158 164 165 141 76 37 28 21 21 16 6 27 55 321 109 148 205 191 200 182 105 114 116 88 48 99 150 156 118 99 81 75 101 53 119 156 146 144 258 267 294 301 59 35 352 312 321
159 164 168 145 90 47 33 24 20 17 9 67 51 323 92 125 209 203 189 143 149 128 111 105 85 85 177 81 112 181 191 211 158 135 44 57 104 195 141 232 263 324 50 71 303 275 36
161 162 158 142 96 56 37 29 24 14 8 10 65 9 302 99 56 333 156 172 163 174 144 146 157 142 290 117 140 183 205 248 187 184 192 102 166 201 216 255 274 283 16 11 256 346 19
163 160 155 142 103 62 43 31 23 14 10 5 77 16 358 69 82 13 23 161 89 191 139 138 128 150 101 155 165 203 205 217 188 203 165 179 163 193 200 239 264 314 333 221 334 344 33
160 158 152 139 110 65 43 31 19 10 2 353 99 24 359 75 92 49 53 39 42 13 163 172 200 147 167 141 173 176 191 302 31 218 215 205 188 192 188 220 213 107 126 87 65 72 31